Flag for Iran Weather past 2 weeks in Esfahãn, Iran

Now
50 °F

Clear.


Feels Like: 46 °F
Forecast: 42 / 75 °F
Wind: 9 mph from Northwest

Location: Esfahan

Current Time: Apr 20, 2015 at 2:18:45 AM

Latest Report: Apr 20, 2015 at 1:30 AM


Visibility: 10 mi

Pressure: 30.01 "Hg

Humidity: 35%

Dew point: 23 °F

Location of EsfahãnLocation

Historic Weather in Esfahãn — Graph

°F

Esfahãn temperature yesterday

Maximum temperature yesterday: 73 °F (at 4:00 PM)
Minimum temperature yesterday: 36 °F (at 5:30 AM)
Average temperature yesterday: 56 °F

Past Weeks' High & Low Weather Summary

 TemperatureHumidityPressure
High84 °F (Apr 12, 2:00 PM)100% (Apr 18, 3:00 AM)30.30 "Hg (Apr 18, 3:00 AM)
Low30 °F (Apr 15, 6:30 AM)2% (Apr 14, 4:00 PM)29.89 "Hg (Apr 5, 1:30 AM)
Average61 °F29%30.08 "Hg
* Reported Apr 5 12:30 AM — Apr 20 1:00 AM, Esfahãn, Weather by CustomWeather, © 2015

Note: Actual official high and low records may vary slightly from our data, if they occured in-between our weather recording intervals... More about our weather records

Advertising

Esfahãn weather history for previous 24 hours

 ConditionsComfort  
Time TempWeatherWind HumidityBarometerVisibility
1:00 AM
Mon, Apr 20
50 °FClear.9 mph35%30.01 "Hg10 mi
12:30 AM57 °FClear.12 mph25%30.01 "Hg10 mi
12:00 AM59 °FClear.12 mph23%30.01 "Hg10 mi
11:30 PM
Sun, Apr 19
52 °FClear.5 mph38%30.01 "Hg10 mi
11:00 PM55 °FClear.No wind33%30.01 "Hg4 mi
10:30 PM57 °FClear.7 mph31%30.01 "Hg4 mi
10:00 PM57 °FClear.5 mph29%29.98 "Hg4 mi
9:30 PM59 °FClear.5 mph25%29.98 "Hg4 mi
9:00 PM61 °FSunny.5 mph25%29.98 "Hg4 mi
8:30 PM64 °FSunny.7 mph22%29.95 "Hg4 mi
8:00 PM66 °FSunny.7 mph19%29.95 "Hg4 mi
7:30 PM70 °FSunny.5 mph16%29.95 "Hg4 mi
7:00 PM70 °FSunny.9 mph16%29.95 "Hg4 mi
6:30 PM72 °FSunny.7 mph15%29.95 "Hg4 mi
6:00 PM73 °FSunny.7 mph13%29.95 "Hg4 mi
5:30 PM73 °FSunny.12 mph13%29.95 "Hg4 mi
5:00 PM72 °FSunny.7 mph14%29.95 "Hg4 mi
4:30 PM72 °FSunny.7 mph15%29.98 "Hg3 mi
4:00 PM73 °FSunny.No wind14%29.98 "Hg3 mi
3:30 PM72 °FSunny.14 mph16%29.98 "Hg3 mi
3:00 PM72 °FSunny.14 mph17%30.01 "Hg3 mi
2:30 PM68 °FSunny.16 mph21%30.01 "Hg2 mi
2:00 PM68 °FSunny.12 mph21%30.01 "Hg2 mi
1:30 PM70 °FSunny.12 mph18%30.04 "Hg2 mi
1:00 PM68 °FSunny.7 mph21%30.04 "Hg3 mi
12:30 PM66 °FSunny.9 mph21%30.07 "Hg2 mi
12:00 PM66 °FSunny.9 mph22%30.07 "Hg2 mi
11:30 AM63 °FSunny.7 mph27%30.07 "Hg2 mi
11:00 AM63 °FSunny.9 mph32%30.07 "Hg2 mi
10:30 AM61 °FSunny.14 mph34%30.07 "Hg2 mi
10:00 AM57 °FSunny.9 mph41%30.07 "Hg2 mi
9:30 AM54 °FSunny.7 mph51%30.07 "Hg2 mi
9:00 AM52 °FSunny.7 mph58%30.07 "Hg2 mi
8:30 AM48 °FSunny.5 mph62%30.07 "Hg2 mi
8:00 AM45 °FSunny.5 mph66%30.07 "Hg1 mi
7:30 AM41 °FClear.5 mph66%30.07 "Hg1 mi
7:00 AM37 °FClear.5 mph75%30.07 "Hg1 mi
6:30 AM39 °FClear.No wind70%30.04 "Hg2 mi
6:00 AM41 °FClear.No wind70%30.04 "Hg2 mi
5:30 AM36 °FFog.7 mph81%30.04 "Hg2 mi
5:00 AM41 °FClear.9 mph70%30.04 "Hg2 mi
4:30 AM39 °FClear.5 mph75%30.04 "Hg2 mi
4:00 AM43 °FClear.5 mph71%30.04 "Hg3 mi
3:30 AM39 °FClear.No wind75%30.04 "Hg4 mi
3:00 AM39 °FClear.5 mph75%30.04 "Hg4 mi
2:30 AM41 °FClear.No wind76%30.04 "Hg4 mi
2:00 AM45 °FClear.No wind71%30.04 "Hg4 mi
Weather by CustomWeather, © 2015

See weather overviewHow to use our weather pages